Regional Weather Roundup
Issued by NWS

Home | Current Version | Previous Version | Text Only | Print | Product List | Glossary On
Versions: 1 2 3 4 5 6 7 8 9 10 11 12 13 14 15 16 17 18 19 20 21 22 23 24 25 26 27 28 29 30 31 32 33 34 35 36 37 38 39 40 41 42 43 44 45 46 47 48 49 50
000
ASUS43 KMKX 060021
RWRWI

WISCONSIN REGIONAL WEATHER ROUNDUP
NATIONAL WEATHER SERVICE MILWAUKEE/SULLIVAN WI
700 PM CDT TUE MAY 05 2015

NOTE: "FAIR" INDICATES FEW OR NO CLOUDS BELOW 12,000 FEET WITH NO
SIGNIFICANT WEATHER AND/OR OBSTRUCTIONS TO VISIBILITY.

WIZ001-002-006>008-014>016-023>028-060100-
NORTHWEST WISCONSIN

CITY           SKY/WX    TMP DP  RH WIND       PRES   REMARKS
SUPERIOR ARPT  SUNNY     49  33  54 NE10G16   30.15F
6HR MIN TEMP:  49; 6HR MAX TEMP:  58;

ASHLAND        SUNNY     51  37  58 N12       30.17F
6HR MIN TEMP:  51; 6HR MAX TEMP:  69;

HAYWARD        SUNNY     69  26  20 S12G20    30.16S
6HR MIN TEMP:  69; 6HR MAX TEMP:  73;

SIREN          MOSUNNY   69  30  23 SE14G20   30.13F
6HR MIN TEMP:  69; 6HR MAX TEMP:  74;

CUMBERLAND     MOSUNNY   64  28  25 SE15      30.15F
RICE LAKE      MOSUNNY   65  28  24 SE9       30.17S
6HR MIN TEMP:  65; 6HR MAX TEMP:  72;

CHETEK         CLOUDY    65  33  30 E9G17     30.17S
6HR MIN TEMP:  65; 6HR MAX TEMP:  71;

LADYSMITH      MOSUNNY   66  28  23 SE7       30.20S
6HR MIN TEMP:  66; 6HR MAX TEMP:  72;

EAU CLAIRE     CLOUDY    64  39  39 SE13      30.16F
6HR MIN TEMP:  64; 6HR MAX TEMP:  69;

MENOMONIE      PTSUNNY   64  41  42 E14       30.16F
6HR MIN TEMP:  64; 6HR MAX TEMP:  69;

NEW RICHMOND   MOSUNNY   65  37  34 SE10      30.14F
6HR MIN TEMP:  65; 6HR MAX TEMP:  71;

OSCEOLA        MOSUNNY   66  35  32 SE12      30.16S
6HR MIN TEMP:  66; 6HR MAX TEMP:  72;

$$

WIZ003>005-009-010-017-018-060100-
NORTH CENTRAL WISCONSIN

CITY           SKY/WX    TMP DP  RH WIND       PRES   REMARKS
MANITOWISH WTR SUNNY     67  31  26 S9        30.19S
6HR MIN TEMP:  66; 6HR MAX TEMP:  71;

ARBOR VITAE    SUNNY     67  25  20 SE10      30.20S
6HR MIN TEMP:  67; 6HR MAX TEMP:  72;

WOODRUFF       SUNNY     67  25  20 SE10      30.20S
6HR MIN TEMP:  67; 6HR MAX TEMP:  72;

RHINELANDER    MOSUNNY   65  25  22 S14G21    30.22F
6HR MIN TEMP:  65; 6HR MAX TEMP:  70;

EAGLE RIVER    SUNNY     65  26  22 S8        30.20F
6HR MIN TEMP:  65; 6HR MAX TEMP:  71;

LAND O LAKES   SUNNY     68  28  22 S7        30.21S
6HR MIN TEMP:  68; 6HR MAX TEMP:  72;

PHILLIPS       MOSUNNY   66  28  23 S13       30.18S
6HR MIN TEMP:  66; 6HR MAX TEMP:  70; 6HR PCP:  0.03;

TOMAHAWK       PTSUNNY   64  25  22 SE7       30.22
6HR MIN TEMP:  64; 6HR MAX TEMP:  70;

MEDFORD        CLOUDY    61  27  27 SE9       30.20F
6HR MIN TEMP:  61; 6HR MAX TEMP:  69;

MERRILL        PTSUNNY   63  26  23 SE12      30.23S
$$

WIZ029-030-035-036-043>047-060100-
CENTRAL WISCONSIN

CITY           SKY/WX    TMP DP  RH WIND       PRES   REMARKS
WAUSAU         CLOUDY    62  17  17 SE12      30.21S
6HR MIN TEMP:  62; 6HR MAX TEMP:  70;

MOSINEE        SUNNY     61  25  25 SE6       30.23F
MARSHFIELD     CLOUDY    61  35  37 SE12      30.20F
6HR MIN TEMP:  61; 6HR MAX TEMP:  68;

STEVENS POINT  CLOUDY    60  31  32 E7        30.22F
6HR MIN TEMP:  60; 6HR MAX TEMP:  66; 6HR PCP:  0.03;

WAUPACA        CLOUDY    63  38  39 E6        30.22F
6HR MIN TEMP:  63; 6HR MAX TEMP:  67;

WAUTOMA        CLOUDY    58  49  72 SE6       30.23S
6HR MIN TEMP:  58; 6HR MAX TEMP:  64;

WISC RAPIDS    CLOUDY    62  32  32 SE8       30.22F
6HR MIN TEMP:  62; 6HR MAX TEMP:  66;

CAMP DOUGLAS   CLOUDY    55  54  94 E10       30.19F
                                      6HR PCP: TRACE;

$$

WIZ011>013-019>022-031-037>040-048>050-060100-
NORTHEAST WISCONSIN

CITY           SKY/WX    TMP DP  RH WIND       PRES   REMARKS
ANTIGO         PTSUNNY   59  31  33 SE7       30.24S
SHAWANO        MOCLDY    63  23  21 E7        30.25S
6HR MIN TEMP:  63; 6HR MAX TEMP:  71;

OCONTO         MOCLDY    61  29  30 E5        30.25S
6HR MIN TEMP:  61; 6HR MAX TEMP:  67;

STURGEON BAY   MOCLDY    61  25  25 CALM      30.27S
6HR MIN TEMP:  61; 6HR MAX TEMP:  63;

GREEN BAY      CLOUDY    62  26  25 E7        30.24F
6HR MIN TEMP:  62; 6HR MAX TEMP:  66;

MANITOWOC      CLOUDY    52  38  58 E3        30.25F
6HR MIN TEMP:  52; 6HR MAX TEMP:  58;

APPLETON       NOT AVBL
CLINTONVILLE   CLOUDY    63  19  19 SE7       30.23F
OSHKOSH        CLOUDY    58  47  66 SE7       30.23S
6HR MIN TEMP:  58; 6HR MAX TEMP:  62;

$$

WIZ032>034-041-042-053>061-060100-
SOUTHWEST WISCONSIN

CITY           SKY/WX    TMP DP  RH WIND       PRES   REMARKS
LA CROSSE      LGT RAIN  56  53  90 SE7       30.17S FOG
6HR MIN TEMP:  57; 6HR MAX TEMP:  59; 6HR PCP:  0.03;

SPARTA         CLOUDY    55  49  81 E7        30.20S
6HR MIN TEMP:  55; 6HR MAX TEMP:  61;

VIROQUA        CLOUDY    53  53 100 E13       30.17F
6HR MIN TEMP:  51; 6HR MAX TEMP:  53; 6HR PCP:  0.04;

BOSCOBEL       CLOUDY    56  53  90 E3        30.18F FOG
6HR MIN TEMP:  54; 6HR MAX TEMP:  56; 6HR PCP:  0.05;

PRAIRIE DU CHI LGT RAIN  55  53  95 E5        30.16F
6HR MIN TEMP:  52; 6HR MAX TEMP:  55; 6HR PCP:  0.06;

PLATTEVILLE    CLOUDY    56  54  94 E13       30.17S
6HR MIN TEMP:  53; 6HR MAX TEMP:  56; 6HR PCP:  0.02;

$$

WIZ056-057-062-063-064-067-068-060100-
SOUTH CENTRAL WISCONSIN

CITY           SKY/WX    TMP DP  RH WIND       PRES   REMARKS
REEDSBURG      CLOUDY    55  51  89 E5        30.19F
6HR MIN TEMP:  52; 6HR MAX TEMP:  55; 6HR PCP:  0.03;

BARABOO/DELLS  NOT AVBL
LONE ROCK      LGT RAIN  56  52  86 E10       30.19F
6HR MIN TEMP:  54; 6HR MAX TEMP:  56; 6HR PCP: TRACE;

MINERAL POINT  CLOUDY    55  54  94 E10       30.18F
MADISON        CLOUDY    55  50  83 E10       30.20F
6HR MIN TEMP:  53; 6HR MAX TEMP:  56; 6HR PCP:  0.01;

MIDDLETON      CLOUDY    56  51  82 E8        30.21S
6HR MIN TEMP:  54; 6HR MAX TEMP:  57; 6HR PCP:  0.01;

WATERTOWN      CLOUDY    54  50  87 E9        30.21F
6HR MIN TEMP:  51; 6HR MAX TEMP:  55;

MONROE         CLOUDY    52  50  93 E9        30.19S
JANESVILLE     CLOUDY    52  50  93 E14       30.19F
$$

WIZ051-052-058>065-066-070>072-060100-
SOUTHEAST WISCONSIN

CITY           SKY/WX    TMP DP  RH WIND       PRES   REMARKS
MILWAUKEE      CLOUDY    47  42  83 NE6       30.24F
6HR MIN TEMP:  45; 6HR MAX TEMP:  48; 6HR PCP:  0.05;

WAUKESHA       CLOUDY    50  45  81 E8        30.24F
MILWAUKEE/TIMM NOT AVBL
RACINE         CLOUDY    46  43  89 N5        30.25F
6HR MIN TEMP:  45; 6HR MAX TEMP:  48; 6HR PCP:  0.05;

BURLINGTON     CLOUDY    47  46  95 E8        30.22S
6HR MIN TEMP:  46; 6HR MAX TEMP:  48;

KENOSHA        CLOUDY    48  46  93 E10       30.23S
6HR MIN TEMP:  47; 6HR MAX TEMP:  49; 6HR PCP:  0.01;

FOND DU LAC    LGT RAIN  55  46  71 E8        30.23F
6HR MIN TEMP:  55; 6HR MAX TEMP:  59; 6HR PCP: TRACE;

SHEBOYGAN      CLOUDY    54  42  64 SE3       30.24F
6HR MIN TEMP:  54; 6HR MAX TEMP:  58;

WEST BEND      CLOUDY    50  43  76 SE6       30.24S
JUNEAU         CLOUDY    53  46  78 E10G17    30.24S
6HR MIN TEMP:  53; 6HR MAX TEMP:  56;

$$

LSZ147-162-060100-
LAKE SUPERIOR

STATION/POSITION TIME  TEMP    WIND        PRES    WAVE
                       AIR SEA DIR/SP/G            HT/PER
                 (UTC) (F)     (DEG/KT/KT) (MB)    (FT/S)
W MID LAKE BUOY  2350   40 36   50/ 10/ 10 1023.0F   0
DEVILS ISLAND    0000   47     110/ 13/ 16 1022.1F
PORT WING        2300   48      30/ 12/ 14 1020.3
SAXON HARBOR     2300   49     330/  7/ 10 1021.0
$$

LMZ867-665-643>646-060100-
LAKE MICHIGAN

STATION/POSITION TIME  TEMP    WIND        PRES    WAVE
                       AIR SEA DIR/SP/G            HT/PER
                 (UTC) (F)     (DEG/KT/KT) (MB)    (FT/S)
CHAMBERS ISLAND  2300   50      10/  4/  6 1025.1S


USA.gov is the U.S. government's official web portal to all federal, state and local government web resources and services.